User: anonymous   Login
Location: Bosmont
(49.7318°N, 3.8587°E)
Time: 17:52:34
(UTC+00:00)
Language:

Lacrosse 5 rocket - Orbit

View from above orbital plane
View from above orbital plane
View from above satellite
View from above satellite

Ground track
Ground track

The orbit data is extracted from the following two-line orbital elements,

1 28647U 05016B   23152.36909283  .00005968  00000-0  31831-3 0  9999
2 28647  56.9936 162.9496 0107750 296.3972  62.6040 15.11658098222651
Epoch (UTC): 01 June 2023 08:51:29
Eccentricity: 0.0107750
inclination: 56.9936°
perigee height: 457 km
apogee height: 605 km
right ascension of ascending node: 162.9496°
argument of perigee: 296.3972°
revolutions per day: 15.11658098
mean anomaly at epoch: 62.6040°
orbit number at epoch: 22265

The dashed part of the orbit path shows where the satellite is in the earth's shadow,  

DLR